Regional Weather Roundup
Issued by NWS Raleigh/Durham, NC

Home | Current Version | Previous Version | Text Only | Print | Product List | Glossary On
Versions: 1 2 3 4 5 6 7 8 9 10 11 12 13 14 15 16 17 18 19 20 21 22 23 24 25 26 27 28
000
ASUS42 KRAH 050310
RWRRAH
NORTH CAROLINA WEATHER ROUNDUP
NATIONAL WEATHER SERVICE RALEIGH NC
1000 PM EST SUN DEC 04 2016

NOTE: "FAIR" INDICATES FEW OR NO CLOUDS BELOW 12,000 FEET WITH NO
SIGNIFICANT WEATHER AND/OR OBSTRUCTIONS TO VISIBILITY.

NCZ001-053-055-056-065-067-050400-
WESTERN NORTH CAROLINA

CITY           SKY/WX    TMP DP  RH WIND       PRES   REMARKS
ASHEVILLE      LGT RAIN  39  37  92 SE5       30.06F
JEFFERSON      DRIZZLE   37  37  99 S3        30.00S
MORGANTON      RAIN      40  40 100 CALM      30.13F
HICKORY        RAIN      40  39  97 CALM      30.08F FOG
RUTHERFORDTON  DRIZZLE   40  40 100 CALM      30.11S
MOUNT AIRY     DRIZZLE   39  38  94 CALM      30.10S
BOONE          LGT RAIN  42  40  93 N6        30.01S
$$

NCZ021-022-025-041-071-084-088-050400-
CENTRAL NORTH CAROLINA

CITY           SKY/WX    TMP DP  RH WIND       PRES   REMARKS
CHARLOTTE      LGT RAIN  42  39  89 N5        30.10F
GREENSBORO     LGT RAIN  41  41 100 SE3       30.09F FOG
WINSTON-SALEM  LGT RAIN  40  38  93 CALM      30.10F FOG
RALEIGH-DURHAM LGT RAIN  42  40  92 E3        30.11F FOG
FORT BRAGG     LGT RAIN  44  42  94 E3        30.09F
FAYETTEVILLE   LGT RAIN  45  44  97 E6        30.10F FOG
BURLINGTON     LGT RAIN  41  41 100 CALM      30.10F FOG
LAURINBURG     LGT RAIN  44  42  93 E5        30.11F FOG
$$

NCZ011-015-027-028-043-044-047-080-103-050400-
NORTHEASTERN NORTH CAROLINA

CITY           SKY/WX    TMP DP  RH WIND       PRES   REMARKS
ROCKY MT-WILSO LGT RAIN  43  43 100 CALM      30.12F FOG
GREENVILLE     LGT RAIN  45  45 100 SE6       30.13F
WASHINGTON     LGT RAIN  44  42  94 E5        30.14F
ELIZABETH CITY LGT RAIN  46  41  82 E7        30.16F
MANTEO         CLOUDY    47  43  85 E5        30.16F
CAPE HATTERAS  LGT RAIN  49  44  83 NE6       30.15F
$$

NCZ078-087-090-091-093-098-101-050400-
SOUTHEASTERN NORTH CAROLINA

CITY           SKY/WX    TMP DP  RH WIND       PRES   REMARKS
LUMBERTON      LGT RAIN  44  44 100 VRB3      30.09F FOG
GOLDSBORO      CLOUDY    44  44 100 E7        30.10S
KINSTON        CLOUDY    45  43  93 E3        30.13F
KENANSVILLE    LGT RAIN  45  43  93 E5        30.13S FOG
NEW BERN       RAIN      47  44  90 E7        30.13F
CHERRY POINT   LGT RAIN  47  44  90 E6        30.13F
BEAUFORT       LGT RAIN  50  49  96 E7        30.12F
JACKSONVILLE   LGT RAIN  47  45  93 E8        30.11F
WILMINGTON     LGT RAIN  47  47 100 CALM      30.10F
$$





USA.gov is the U.S. government's official web portal to all federal, state and local government web resources and services.